Time,TemperatureF,DewpointF,PressureIn,WindDirection,WindDirectionDegrees,WindSpeedMPH,WindSpeedGustMPH,Humidity,HourlyPrecipIn,Conditions,Clouds,dailyrainin,SoftwareType,DateUTC
2017-03-26 00:11:00,63.0,51.0,29.95,SSE,161,3.0,7.0,64,0.00,,,0.00,weatherlink.com 1.10,2017-03-26 04:11:00,
2017-03-26 00:26:00,62.9,50.0,29.95,SSE,167,3.0,9.0,64,0.00,,,0.00,weatherlink.com 1.10,2017-03-26 04:26:00,
2017-03-26 00:41:00,62.7,50.0,29.95,SSE,161,3.0,7.0,64,0.00,,,0.00,weatherlink.com 1.10,2017-03-26 04:41:00,
2017-03-26 00:56:00,62.2,50.0,29.95,SSE,165,2.0,6.0,64,0.00,,,0.00,weatherlink.com 1.10,2017-03-26 04:56:00,
2017-03-26 01:11:00,61.8,49.0,29.94,SSE,165,0.0,8.0,64,0.00,,,0.00,weatherlink.com 1.10,2017-03-26 05:11:00,
2017-03-26 01:26:00,61.9,49.0,29.94,South,178,1.0,7.0,64,0.00,,,0.00,weatherlink.com 1.10,2017-03-26 05:26:00,
2017-03-26 01:42:00,62.0,50.0,29.94,South,180,2.0,6.0,64,0.00,,,0.00,weatherlink.com 1.10,2017-03-26 05:42:00,
2017-03-26 01:56:00,62.0,50.0,29.94,South,189,1.0,6.0,64,0.00,,,0.00,weatherlink.com 1.10,2017-03-26 05:56:00,
2017-03-26 02:11:00,61.8,49.0,29.94,South,178,0.0,4.0,64,0.00,,,0.00,weatherlink.com 1.10,2017-03-26 06:11:00,
2017-03-26 02:26:00,61.4,49.0,29.93,South,178,0.0,4.0,64,0.00,,,0.00,weatherlink.com 1.10,2017-03-26 06:26:00,
2017-03-26 02:42:00,61.2,49.0,29.93,South,178,1.0,3.0,64,0.00,,,0.00,weatherlink.com 1.10,2017-03-26 06:42:00,
2017-03-26 02:56:00,62.1,50.0,29.94,SW,225,2.0,5.0,64,0.00,,,0.00,weatherlink.com 1.10,2017-03-26 06:56:00,
2017-03-26 03:11:00,62.9,50.0,29.93,West,271,0.0,3.0,64,0.00,,,0.00,weatherlink.com 1.10,2017-03-26 07:11:00,
2017-03-26 03:27:00,62.6,50.0,29.93,West,271,0.0,2.0,64,0.00,,,0.00,weatherlink.com 1.10,2017-03-26 07:27:00,
2017-03-26 03:42:00,61.7,49.0,29.93,West,271,0.0,1.0,64,0.00,,,0.00,weatherlink.com 1.10,2017-03-26 07:42:00,
2017-03-26 03:57:00,60.5,48.0,29.92,West,271,0.0,0.0,64,0.00,,,0.00,weatherlink.com 1.10,2017-03-26 07:57:00,
2017-03-26 04:12:00,59.4,46.0,29.92,West,271,0.0,0.0,62,0.00,,,0.00,weatherlink.com 1.10,2017-03-26 08:12:00,
2017-03-26 04:27:00,58.7,44.0,29.92,West,271,0.0,1.0,59,0.00,,,0.00,weatherlink.com 1.10,2017-03-26 08:27:00,
2017-03-26 04:42:00,58.3,44.0,29.92,West,271,0.0,0.0,59,0.00,,,0.00,weatherlink.com 1.10,2017-03-26 08:42:00,
2017-03-26 04:57:00,57.8,42.0,29.92,West,271,0.0,0.0,57,0.00,,,0.00,weatherlink.com 1.10,2017-03-26 08:57:00,
2017-03-26 05:12:00,57.6,42.0,29.92,West,271,0.0,1.0,56,0.00,,,0.00,weatherlink.com 1.10,2017-03-26 09:12:00,
2017-03-26 05:27:00,57.3,42.0,29.91,West,271,0.0,1.0,56,0.00,,,0.00,weatherlink.com 1.10,2017-03-26 09:27:00,
2017-03-26 05:42:00,56.8,41.0,29.91,West,271,0.0,0.0,55,0.00,,,0.00,weatherlink.com 1.10,2017-03-26 09:42:00,
2017-03-26 05:57:00,56.4,40.0,29.91,West,271,0.0,0.0,55,0.00,,,0.00,weatherlink.com 1.10,2017-03-26 09:57:00,
2017-03-26 06:12:00,55.9,37.0,29.92,West,271,0.0,0.0,50,0.00,,,0.00,weatherlink.com 1.10,2017-03-26 10:12:00,
2017-03-26 06:27:00,56.0,35.0,29.92,West,271,0.0,0.0,45,0.00,,,0.00,weatherlink.com 1.10,2017-03-26 10:27:00,
2017-03-26 06:42:00,56.0,32.0,29.91,West,271,0.0,0.0,41,0.00,,,0.00,weatherlink.com 1.10,2017-03-26 10:42:00,
2017-03-26 06:57:00,56.0,32.0,29.93,West,271,0.0,0.0,40,0.00,,,0.00,weatherlink.com 1.10,2017-03-26 10:57:00,
2017-03-26 07:12:00,56.3,28.0,29.93,WSW,252,0.0,5.0,34,0.00,,,0.00,weatherlink.com 1.10,2017-03-26 11:12:00,
2017-03-26 07:27:00,56.8,24.0,29.93,WSW,252,0.0,3.0,28,0.00,,,0.00,weatherlink.com 1.10,2017-03-26 11:27:00,
2017-03-26 07:42:00,56.9,20.0,29.93,WSW,252,0.0,1.0,24,0.00,,,0.00,weatherlink.com 1.10,2017-03-26 11:42:00,
2017-03-26 07:57:00,56.6,9.0,29.94,WSW,252,0.0,2.0,15,0.00,,,0.00,weatherlink.com 1.10,2017-03-26 11:57:00,
2017-03-26 08:12:00,56.1,-5.0,29.93,WSW,252,0.0,2.0,8,0.01,,,0.01,weatherlink.com 1.10,2017-03-26 12:12:00,
2017-03-26 08:27:00,55.7,-32.0,29.94,WSW,252,0.0,3.0,2,0.01,,,0.01,weatherlink.com 1.10,2017-03-26 12:27:00,
2017-03-26 08:42:00,55.1,-99.9,29.95,WSW,252,0.0,4.0,0,0.02,,,0.02,weatherlink.com 1.10,2017-03-26 12:42:00,
2017-03-26 08:57:00,54.8,-99.9,29.94,WSW,249,0.0,3.0,0,0.02,,,0.02,weatherlink.com 1.10,2017-03-26 12:57:00,
2017-03-26 09:12:00,54.8,-99.9,29.95,WSW,242,0.0,5.0,0,0.01,,,0.02,weatherlink.com 1.10,2017-03-26 13:12:00,
2017-03-26 09:28:00,55.1,-99.9,29.94,South,190,1.0,8.0,0,0.00,,,0.02,weatherlink.com 1.10,2017-03-26 13:28:00,
2017-03-26 09:43:00,55.3,-99.9,29.94,South,181,3.0,7.0,0,0.00,,,0.02,weatherlink.com 1.10,2017-03-26 13:43:00,
2017-03-26 09:58:00,55.7,-99.9,29.94,South,189,4.0,11.0,0,0.00,,,0.02,weatherlink.com 1.10,2017-03-26 13:58:00,
2017-03-26 10:13:00,56.0,-99.9,29.94,SW,216,3.0,11.0,0,0.00,,,0.02,weatherlink.com 1.10,2017-03-26 14:13:00,
2017-03-26 10:28:00,56.5,-32.0,29.94,SSE,163,5.0,14.0,2,0.00,,,0.02,weatherlink.com 1.10,2017-03-26 14:28:00,
2017-03-26 10:43:00,57.2,-7.0,29.94,SSW,200,6.0,10.0,7,0.00,,,0.02,weatherlink.com 1.10,2017-03-26 14:43:00,
2017-03-26 10:58:00,58.1,7.0,29.94,WSW,244,4.0,9.0,13,0.00,,,0.02,weatherlink.com 1.10,2017-03-26 14:58:00,
2017-03-26 11:13:00,58.7,12.0,29.94,SW,221,4.0,10.0,16,0.00,,,0.02,weatherlink.com 1.10,2017-03-26 15:13:00,